EHI
19 19 20 21 18 14 9 5 1 0 0 0 0 0 0 0 0 0 0 0 0 0 0 0 0 0 0 0 0 0 0 0 0 0 0 0 0 0 0 0 0 0 0
23 21 22 22 18 14 10 6 2 0 0 0 0 0 0 0 0 0 0 0 0 0 0 0 0 0 0 0 0 0 0 0 0 0 0 0 0 0 0 0 0 0 0
29 23 22 23 19 14 10 7 3 1 0 0 0 0 0 0 0 0 0 0 0 0 0 0 0 0 0 0 0 0 0 0 0 0 0 0 0 0 0 0 0 0 0
27 21 20 25 21 15 11 6 3 1 0 0 0 0 0 0 0 0 0 0 0 0 0 0 0 0 0 0 0 0 0 0 0 0 0 0 0 0 0 0 0 0 0
22 18 21 27 25 18 11 6 2 0 0 0 0 0 0 0 0 0 0 0 0 0 0 0 0 0 0 0 0 0 0 0 0 0 0 0 0 0 0 0 0 0 0
19 17 21 28 27 20 13 7 2 0 0 0 0 0 0 0 0 0 0 0 0 0 0 0 0 0 0 0 0 0 0 0 0 0 0 0 0 0 0 0 0 0 0
19 17 20 27 25 18 13 9 5 1 0 0 0 0 0 0 0 0 0 0 0 0 0 0 0 0 0 0 0 0 0 0 0 0 0 0 0 0 0 0 0 0 0
24 20 19 22 21 16 12 10 7 3 1 0 0 1 0 0 0 0 0 0 0 0 0 0 0 0 0 0 0 0 0 0 0 0 0 0 0 0 0 0 0 0 0
27 23 17 15 15 13 11 10 8 5 2 0 0 0 0 0 0 0 0 0 0 0 0 0 0 0 0 0 0 0 0 0 0 0 0 0 0 0 0 0 0 0 0
26 22 15 11 10 9 9 9 8 5 2 0 0 0 0 0 0 0 0 0 0 0 0 0 0 0 0 0 0 0 0 0 0 0 0 0 0 0 0 0 0 0 0
25 22 15 10 8 7 7 6 5 3 1 0 0 0 0 0 0 0 0 0 0 0 0 0 0 0 0 0 0 0 0 0 0 0 0 0 0 0 0 0 0 0 0
26 23 16 11 9 8 7 6 5 3 1 0 0 0 0 0 0 0 0 0 0 0 0 0 0 0 0 0 0 0 0 0 0 0 0 0 0 0 0 0 0 0 0
25 23 18 13 11 11 10 9 8 5 3 1 0 0 0 0 0 0 0 0 0 0 0 0 0 0 0 0 0 0 0 0 0 0 0 0 0 0 0 0 0 0 0
23 22 19 15 13 13 13 13 10 7 4 1 0 0 0 0 0 0 0 0 0 0 0 0 0 0 0 0 0 0 0 0 0 0 0 0 0 0 0 0 0 0 0
21 21 18 16 15 14 14 13 11 7 4 2 0 0 0 0 0 0 0 0 0 0 0 0 0 0 0 0 0 0 0 0 0 0 0 0 0 0 0 0 0 0 0
20 20 18 17 16 15 14 12 10 7 6 3 1 1 1 1 1 0 0 0 0 0 0 0 0 0 0 0 0 0 0 0 0 0 0 0 0 0 0 0 0 0 0
21 20 17 16 16 16 14 12 9 8 7 6 4 3 3 2 1 0 0 0 0 0 0 0 0 0 0 0 0 0 0 0 0 0 0 0 0 0 0 0 0 0 0
20 18 15 14 14 15 14 11 9 8 8 7 6 5 4 3 2 1 0 0 0 0 0 0 0 0 0 0 0 0 0 0 0 0 0 0 0 0 0 0 0 0 0
16 14 13 13 13 13 13 12 11 10 9 9 8 7 5 4 3 2 1 0 0 0 0 0 0 0 0 0 0 0 0 0 0 0 0 0 0 0 0 0 0 0 0
12 11 11 11 11 11 13 14 14 11 9 9 8 7 5 3 3 2 1 0 0 0 0 0 0 0 0 0 0 0 0 0 0 0 0 0 0 0 0 0 0 0 0
7 7 7 8 9 10 12 13 12 10 8 7 7 5 4 3 1 1 0 0 0 0 0 0 0 0 0 0 0 0 0 0 0 0 0 0 0 0 0 0 0 0 0
4 4 5 6 7 8 9 8 8 7 6 6 6 4 3 2 1 0 0 0 0 0 0 0 0 0 0 0 0 0 0 0 0 0 0 0 0 0 0 0 0 0 0
3 3 3 4 4 5 5 5 4 3 4 6 5 3 1 1 0 0 0 0 0 0 0 0 0 0 0 0 0 0 0 0 0 0 0 0 0 0 0 0 0 0 0
2 3 2 2 2 3 3 2 1 1 3 5 5 3 1 0 0 0 0 0 0 0 0 0 0 0 0 0 0 0 0 0 0 0 0 0 0 0 0 0 0 0 0
1 1 2 1 1 3 2 1 0 0 1 3 4 3 2 0 0 0 0 0 0 0 0 0 0 0 0 0 0 0 0 0 0 0 0 0 0 0 0 0 0 0 0
0 1 2 1 1 2 2 1 0 0 0 2 4 4 1 0 0 0 0 0 0 0 0 0 0 0 0 0 0 0 0 0 0 0 0 0 0 0 0 0 0 0 0
Wind_Speed
9 11 12 12 13 13 12 12 12 12 12 12 12 12 12 13 13 13 13 13 13 13 14 15 15 16 16 17 17 17 17 16 17 17 16 16 16 16 16 16 15 12 18
13 13 12 12 13 13 12 12 11 11 11 11 12 12 12 12 12 12 12 12 12 13 14 14 15 15 16 16 16 15 14 14 14 14 13 12 14 16 17 17 16 12 18
14 14 13 12 12 12 12 12 11 11 11 11 11 11 12 12 12 12 12 12 12 13 14 14 14 15 15 15 14 13 12 11 9 9 10 7 10 16 17 17 16 17 17
13 13 12 12 13 13 13 12 11 11 11 11 11 11 11 12 12 12 12 12 12 13 13 14 14 14 14 13 12 11 9 8 6 7 6 7 8 15 17 16 16 16 16
12 11 12 12 13 13 12 12 12 11 10 10 10 10 11 11 12 12 12 12 13 13 13 13 13 13 13 12 10 9 8 7 7 8 7 8 7 14 16 16 16 16 16
11 11 12 12 13 12 12 12 11 11 10 10 10 10 11 11 11 12 12 12 13 13 13 13 12 12 12 10 9 7 7 7 6 6 7 7 6 14 16 15 15 15 15
10 10 11 12 13 12 12 12 11 11 10 10 10 10 11 11 11 12 12 12 12 12 12 12 12 12 10 9 8 7 7 7 6 7 7 7 8 14 15 15 14 15 15
10 10 10 11 11 11 11 11 11 11 10 10 10 10 10 11 11 12 12 12 12 12 12 12 11 11 10 8 7 6 6 6 7 9 7 6 10 14 14 14 14 14 14
10 9 8 8 9 10 10 10 10 10 9 9 9 9 9 9 10 11 11 12 12 11 11 11 11 10 9 7 6 5 6 7 5 5 8 5 10 13 13 13 13 13 13
9 8 7 6 7 7 7 9 10 10 9 9 9 8 9 9 10 10 9 10 11 11 10 10 10 10 8 6 4 4 5 5 5 6 5 6 11 12 12 12 12 12 12
7 6 6 6 6 6 6 8 8 8 9 9 7 9 8 5 6 6 9 9 10 10 10 10 10 9 7 4 3 3 3 2 4 5 4 8 10 11 11 11 11 11 11
6 5 5 6 6 5 6 5 4 5 5 5 5 6 4 4 4 7 9 9 9 9 8 8 8 7 4 2 2 2 1 3 4 4 4 9 10 10 10 10 10 10 10
5 5 4 5 5 5 4 4 3 2 3 4 5 4 4 4 4 5 4 5 5 6 4 5 4 2 2 2 2 1 2 3 3 4 4 8 9 9 9 9 9 9 10
4 4 4 4 4 4 4 3 3 3 2 2 3 4 3 3 3 4 3 4 3 2 3 3 2 2 3 3 3 3 4 3 4 3 4 7 8 8 8 9 9 9 9
4 4 4 4 4 3 3 3 3 3 3 3 3 3 3 3 3 3 3 3 3 3 2 2 2 2 3 3 3 4 4 4 5 4 3 6 7 7 8 9 9 9 9
5 5 4 4 4 3 2 2 3 3 3 3 3 3 3 3 3 3 3 3 3 2 2 2 3 3 3 3 3 3 4 4 4 5 4 4 6 7 7 8 8 9 9
5 5 5 5 4 3 3 3 3 3 3 3 3 3 3 3 3 3 3 3 2 2 3 3 3 3 3 3 3 3 3 4 4 4 4 3 3 5 7 8 8 8 8
4 5 5 4 4 3 3 2 2 3 3 3 3 3 4 4 4 3 3 3 2 2 3 3 3 3 3 3 3 3 3 3 4 4 4 4 3 3 5 7 7 7 7
3 5 5 4 4 4 3 2 3 2 3 3 3 3 3 4 4 3 3 3 3 3 3 3 3 3 4 4 4 3 3 3 3 4 4 4 4 4 3 5 6 6 6
2 4 4 4 4 3 3 3 2 3 2 2 2 3 3 3 3 4 3 3 3 3 2 3 4 4 4 4 4 4 3 3 3 3 3 3 4 4 4 3 3 3 5
2 3 3 4 4 4 3 3 3 3 2 2 2 3 3 3 3 4 3 3 3 3 3 4 4 6 4 3 3 3 2 3 3 2 2 2 3 3 3 3 2 2 2
1 2 4 3 4 4 3 3 3 3 3 2 2 2 3 3 3 3 4 3 3 3 3 4 4 4 3 2 3 3 2 1 2 2 2 2 2 2 2 3 3 3 2
1 1 1 4 3 4 4 3 3 3 2 2 2 2 2 3 3 3 4 4 4 3 3 3 4 4 4 2 1 3 3 3 1 1 1 2 2 2 1 2 3 3 3
2 1 0 2 4 4 4 5 6 4 3 2 2 2 2 3 3 4 4 3 3 3 4 3 3 2 4 3 1 1 2 3 3 2 0 1 1 2 1 2 3 3 3
3 2 1 1 2 3 4 5 6 4 3 3 3 3 2 2 3 4 4 4 3 3 4 4 3 2 2 3 2 1 1 1 2 3 2 1 0 0 1 2 2 2 2
4 3 2 0 1 2 4 4 5 5 5 5 4 4 3 2 2 3 4 4 4 3 4 4 4 4 2 3 2 2 2 2 2 2 2 2 1 0 0 1 1 1 1
Wind_Direction
127 136 141 138 135 131 128 126 123 122 119 118 116 114 112 110 107 104 101 100 99 97 97 96 93 90 86 84 82 81 80 81 82 79 74 71 72 72 71 70 71 68 73
131 137 140 137 136 133 130 127 122 120 119 119 119 118 115 114 112 111 107 104 102 101 100 99 96 92 89 86 85 84 83 84 87 86 80 71 70 72 72 70 74 74 73
129 137 140 134 134 132 129 126 122 121 120 120 121 122 118 116 114 112 109 107 104 102 100 99 97 94 90 87 86 85 84 84 87 88 84 78 73 74 74 75 75 75 74
129 137 141 134 134 133 131 128 125 124 122 122 122 121 120 117 114 110 107 106 103 103 101 100 98 96 92 89 86 84 80 70 65 77 77 75 73 77 76 76 76 75 74
130 136 134 134 134 134 133 131 128 125 125 125 122 120 118 116 114 111 108 103 101 101 101 101 100 98 95 90 86 79 62 46 53 71 75 73 71 79 78 76 76 76 75
129 130 134 135 134 133 132 132 131 128 128 127 125 121 120 117 115 113 109 104 103 102 102 103 101 99 96 91 85 69 44 33 57 73 76 76 75 82 80 78 76 76 76
128 129 138 135 136 135 135 133 131 130 130 127 126 124 123 119 116 114 111 107 106 106 106 104 102 100 97 91 81 56 32 42 73 75 74 73 80 84 81 79 77 77 77
125 129 138 131 133 136 137 136 133 131 130 128 127 125 123 121 118 116 113 112 109 109 109 107 105 102 99 93 78 48 31 51 77 84 80 75 85 85 82 80 79 78 78
116 122 135 136 131 129 131 135 134 132 129 127 125 122 120 121 121 119 115 115 113 111 110 110 108 104 99 92 76 47 37 49 62 78 86 78 85 87 85 81 80 80 78
115 121 129 134 134 130 128 127 126 126 125 123 119 116 117 121 122 119 116 115 115 115 114 112 109 107 101 92 73 43 42 49 69 75 80 86 89 88 86 83 81 81 80
112 121 131 133 131 132 134 129 123 122 124 124 120 124 126 131 130 126 120 117 116 118 120 119 116 114 109 96 74 52 52 73 77 79 77 91 93 91 88 85 83 82 81
125 127 131 133 133 134 139 136 139 137 140 139 137 145 151 133 122 119 118 119 120 121 125 129 131 135 130 118 84 61 66 91 86 87 88 95 95 93 92 90 88 86 84
139 133 129 125 134 132 132 141 140 136 146 142 146 151 135 120 119 119 124 121 122 135 134 135 147 162 147 127 125 112 79 80 87 89 90 95 97 97 96 94 93 90 88
146 135 124 120 124 130 132 141 142 142 145 138 143 140 129 128 131 140 139 146 148 148 142 156 166 146 128 124 121 107 91 81 90 94 96 96 98 101 100 98 97 93 91
155 143 134 130 129 129 129 141 140 143 145 137 136 140 125 126 136 135 139 143 144 145 150 150 128 117 104 96 93 92 95 92 93 95 96 94 95 99 101 99 97 93 91
163 152 141 141 136 131 131 138 138 137 134 132 137 136 129 127 134 136 129 132 133 137 138 133 125 113 100 97 93 90 95 99 99 100 105 96 92 93 97 98 95 92 91
163 154 148 149 141 141 141 143 135 138 133 134 141 141 133 126 132 130 127 124 131 130 122 109 106 98 99 95 92 83 82 83 95 105 109 104 96 86 90 92 92 92 92
158 154 153 155 151 142 135 131 130 138 135 136 137 142 136 130 130 123 125 127 129 122 118 115 111 103 98 87 80 73 72 73 74 92 93 99 103 99 87 86 84 86 87
149 153 153 150 152 150 142 126 118 119 123 124 128 133 138 139 139 125 128 129 123 122 127 131 119 117 111 100 90 78 71 74 74 82 88 92 96 104 102 89 84 80 76
133 141 152 152 151 147 139 125 115 110 110 118 125 126 126 137 141 126 127 132 126 123 132 134 128 115 111 108 94 77 65 72 71 73 84 91 92 94 97 105 95 79 73
112 135 146 153 156 148 147 148 144 147 137 126 123 125 127 138 140 133 134 134 128 132 144 139 128 124 119 118 103 87 53 57 74 75 70 83 90 94 94 98 103 98 83
55 120 153 156 163 160 157 157 151 148 145 131 121 132 138 144 140 138 139 143 139 134 128 129 130 130 137 144 136 131 120 47 31 52 63 73 80 87 95 96 91 96 99
5 90 152 169 166 166 152 140 128 118 115 119 131 141 149 144 146 145 146 143 145 140 141 141 142 142 154 168 134 138 145 168 142 36 67 81 83 75 75 81 81 76 83
320 355 120 170 167 165 160 155 151 151 152 154 157 152 155 146 149 148 149 146 146 144 145 151 143 146 150 158 152 86 114 129 137 139 354 40 87 87 78 77 76 71 81
339 350 354 124 170 170 167 164 159 158 152 140 142 147 154 155 154 155 154 150 151 152 151 148 142 148 155 156 154 138 106 83 107 133 166 194 2 25 81 89 86 73 68
349 350 349 152 175 178 170 168 166 162 153 148 150 159 162 160 161 159 155 153 156 157 158 153 155 166 169 160 152 146 145 144 162 142 159 174 180 229 78 94 98 95 83